Regional Weather Roundup
Issued by NWS

Home | Current Version | Previous Version | Text Only | Print | Product List | Glossary Off
Versions: 1 2 3 4 5 6 7 8 9 10 11 12 13 14 15 16 17 18 19 20 21 22 23 24 25 26 27 28 29 30 31 32 33 34 35 36 37 38 39 40 41 42 43 44 45 46 47 48 49 50

901
ASUS45 KCYS 250910
RWRWY

WYOMING REGIONAL WEATHER ROUNDUP
NATIONAL WEATHER SERVICE CHEYENNE WY
300 AM MDT SUN JUN 25 2017

NOTE:  "FAIR" INDICATES FEW OR NO CLOUDS BELOW 12,000 FEET
WITH NO SIGNIFICANT WEATHER AND/OR OBSTRUCTIONS TO VISIBILITY.

WYZ001-251000-
YELLOWSTONE NATIONAL PARK

CITY           SKY/WX    TMP DP  RH WIND       PRES   REMARKS
LK YELLOWSTONE   N/A     36  32  85 NW3       30.48S
W YELLOWSTONE  NOT AVBL

$$
WYZ002>013-054>058-071-098>099-251000-
NORTHERN WYOMING

CITY           SKY/WX    TMP DP  RH WIND       PRES   REMARKS
JACKSON        FAIR      46  37  71 CALM      30.38S
CODY           FAIR      52  37  56 CALM      30.37S
GREYBULL       FAIR      57  35  43 W3        30.29F
WORLAND        FAIR      58  40  51 CALM      30.31S
SHERIDAN       FAIR      45  39  79 NW5       30.33F
BUFFALO        FAIR      50  39  66 W3        30.36F
GILLETTE       FAIR      44  32  62 S6        30.35F
NEWCASTLE      FAIR      54  27  35 E10       30.37F

$$
WYZ014>020-022>026-101>103-251000-
CENTRAL WYOMING

CITY           SKY/WX    TMP DP  RH WIND       PRES   REMARKS
BIG PINEY      FAIR      43  35  73 N3        30.40S
PINEDALE       FAIR      41  37  87 NW8       30.40S
DUBOIS         FAIR      43  32  65 SW8       30.45S
LANDER         FAIR      52  36  54 W9        30.37F
RIVERTON       FAIR      53  34  48 E8        30.38F
CASPER         FAIR      54  30  40 E14       30.38S
DOUGLAS        CLOUDY    54  32  43 SE8       30.41S

$$
WYZ021-027>030-104>119-251000-
SOUTHERN WYOMING

CITY           SKY/WX    TMP DP  RH WIND       PRES   REMARKS
EVANSTON       FAIR      56  35  45 E6        30.37F
KEMMERER         N/A     52  32  46 N13       30.40S
FORT BRIDGER   FAIR      51  34  51 NW5       30.40S
ROCK SPRINGS   FAIR      53  30  41 E16       30.36S
DIXON          FAIR      49  31  49 NE5       30.34S
RAWLINS        FAIR      52  32  46 NE13      30.38S
SARATOGA       FAIR      46  34  61 N10       30.38R
LARAMIE        FAIR      49  41  74 SE7       30.40S
CHEYENNE       CLOUDY    53  39  59 CALM      30.39F
TORRINGTON     MOCLDY    58  30  34 E13       30.36R
PINE BLUFFS    CLOUDY    50  43  76 CALM      30.37S

$$




USA.gov is the U.S. government's official web portal to all federal, state and local government web resources and services.